When you browse on this site, cookies collect data to enhance your experience and personalize the content and advertising you see.
Visit our Privacy Policy to learn more. By continuing to use the site, you agree to this use of cookies and data.
  • In Romania
  • List of Countries
  • For 7 days
  • Water Temperature
  • Satellite Maps
  • Weather Map
  • Weather Widgets
  • user-avatar
    Login

    Hourly Weather Levallois-Perret

    Today, 26 June, Wednesday

    Time Temperature Precipitation Wind Pressure Humidity
    00:00 +24°C° 0 mm 2 mps 760 mmHg 79%
    01:00 +22°C° 0 mm 3 mps 760 mmHg 81%
    02:00 +22°C° 0 mm 3 mps 760 mmHg 83%
    03:00 +22°C° 0 mm 3 mps 760 mmHg 85%
    04:00 +22°C° 0 mm 3 mps 760 mmHg 84%
    05:00 +22°C° 0 mm 4 mps 760 mmHg 83%
    06:00 +23°C° 0 mm 4 mps 760 mmHg 81%
    07:00 +25°C° 0 mm 4 mps 760 mmHg 76%
    08:00 +27°C° 0 mm 4 mps 760 mmHg 71%
    09:00 +29°C° 0 mm 4 mps 760 mmHg 66%
    10:00 +30°C° 0 mm 4 mps 761 mmHg 62%
    11:00 +33°C° 0 mm 5 mps 761 mmHg 57%
    12:00 +34°C° 0 mm 5 mps 761 mmHg 53%
    13:00 +35°C° 0 mm 5 mps 760 mmHg 53%
    14:00 +35°C° 0 mm 5 mps 760 mmHg 54%
    15:00 +36°C° 0 mm 5 mps 760 mmHg 54%
    16:00 +35°C° 0 mm 5 mps 760 mmHg 57%
    17:00 +34°C° 0 mm 5 mps 760 mmHg 61%
    18:00 +33°C° 0 mm 5 mps 760 mmHg 64%
    19:00 +32°C° 0 mm 5 mps 760 mmHg 68%
    20:00 +29°C° 0 mm 5 mps 760 mmHg 71%
    21:00 +28°C° 0 mm 5 mps 761 mmHg 74%
    22:00 +27°C° 0 mm 5 mps 761 mmHg 75%
    23:00 +26°C° 0 mm 5 mps 761 mmHg 76%

    Tomorrow, 27 June, Thursday

    Time Temperature Precipitation Wind Pressure Humidity
    00:00 +25°C° 0 mm 5 mps 761 mmHg 77%
    01:00 +25°C° 0 mm 5 mps 761 mmHg 79%
    02:00 +23°C° 0 mm 5 mps 761 mmHg 80%
    03:00 +22°C° 0 mm 5 mps 761 mmHg 82%
    04:00 +22°C° 0 mm 5 mps 761 mmHg 80%
    05:00 +22°C° 0 mm 5 mps 761 mmHg 78%
    06:00 +22°C° 0 mm 5 mps 761 mmHg 77%
    07:00 +25°C° 0 mm 5 mps 761 mmHg 72%
    08:00 +26°C° 0 mm 5 mps 761 mmHg 68%
    09:00 +27°C° 0 mm 5 mps 762 mmHg 63%
    10:00 +29°C° 0 mm 5 mps 762 mmHg 60%
    11:00 +30°C° 0 mm 5 mps 762 mmHg 56%
    12:00 +32°C° 0 mm 5 mps 761 mmHg 52%
    13:00 +32°C° 0 mm 5 mps 761 mmHg 52%
    14:00 +33°C° 0 mm 6 mps 761 mmHg 51%
    15:00 +33°C° 0 mm 6 mps 761 mmHg 51%
    16:00 +32°C° 0 mm 6 mps 761 mmHg 52%
    17:00 +29°C° 0 mm 6 mps 761 mmHg 53%
    18:00 +28°C° 0 mm 6 mps 761 mmHg 55%
    19:00 +27°C° 0 mm 6 mps 761 mmHg 55%
    20:00 +25°C° 0 mm 5 mps 761 mmHg 56%
    21:00 +23°C° 0 mm 5 mps 762 mmHg 56%
    22:00 +22°C° 0 mm 5 mps 761 mmHg 58%
    23:00 +22°C° 0 mm 5 mps 761 mmHg 59%

    Day after tomorrow, 28 June, Friday

    Time Temperature Precipitation Wind Pressure Humidity
    00:00 +21°C° 0 mm 5 mps 761 mmHg 60%
    01:00 +20°C° 0 mm 4 mps 761 mmHg 63%
    02:00 +20°C° 0 mm 4 mps 761 mmHg 65%
    03:00 +19°C° 0 mm 4 mps 761 mmHg 67%
    04:00 +19°C° 0 mm 4 mps 760 mmHg 66%
    05:00 +19°C° 0 mm 4 mps 760 mmHg 65%
    06:00 +19°C° 0 mm 4 mps 760 mmHg 64%
    07:00 +21°C° 0 mm 4 mps 760 mmHg 61%
    08:00 +23°C° 0 mm 4 mps 760 mmHg 57%
    09:00 +26°C° 0 mm 4 mps 760 mmHg 53%
    10:00 +27°C° 0 mm 4 mps 760 mmHg 50%
    11:00 +29°C° 0 mm 4 mps 760 mmHg 47%
    12:00 +30°C° 0 mm 4 mps 760 mmHg 43%
    13:00 +30°C° 0 mm 4 mps 759 mmHg 43%
    14:00 +32°C° 0 mm 5 mps 759 mmHg 43%
    15:00 +32°C° 0 mm 5 mps 759 mmHg 42%
    16:00 +30°C° 0 mm 4 mps 759 mmHg 46%
    17:00 +30°C° 0 mm 4 mps 758 mmHg 49%
    18:00 +29°C° 0 mm 4 mps 758 mmHg 53%
    19:00 +27°C° 0 mm 4 mps 758 mmHg 56%
    20:00 +26°C° 0 mm 3 mps 758 mmHg 59%
    21:00 +25°C° 0 mm 3 mps 758 mmHg 62%
    22:00 +24°C° 0 mm 3 mps 758 mmHg 62%
    23:00 +22°C° 0 mm 3 mps 758 mmHg 62%

    29 June, Saturday

    Time Temperature Precipitation Wind Pressure Humidity
    00:00 +22°C° 0 mm 3 mps 758 mmHg 62%
    01:00 +21°C° 0 mm 2 mps 757 mmHg 61%
    02:00 +20°C° 0 mm 2 mps 757 mmHg 61%
    03:00 +20°C° 0 mm 2 mps 757 mmHg 60%
    04:00 +20°C° 0 mm 2 mps 757 mmHg 59%
    05:00 +20°C° 0 mm 2 mps 757 mmHg 59%
    06:00 +21°C° 0 mm 3 mps 757 mmHg 58%
    07:00 +22°C° 0 mm 3 mps 757 mmHg 54%
    08:00 +25°C° 0 mm 3 mps 757 mmHg 50%
    09:00 +27°C° 0 mm 3 mps 757 mmHg 46%
    10:00 +29°C° 0 mm 3 mps 756 mmHg 42%
    11:00 +31°C° 0 mm 3 mps 756 mmHg 39%
    12:00 +34°C° 0 mm 2 mps 756 mmHg 35%
    13:00 +34°C° 0 mm 2 mps 755 mmHg 34%
    14:00 +35°C° 0 mm 2 mps 755 mmHg 34%
    15:00 +36°C° 0 mm 2 mps 755 mmHg 33%
    16:00 +35°C° 0 mm 2 mps 755 mmHg 37%
    17:00 +35°C° 0 mm 2 mps 755 mmHg 42%
    18:00 +34°C° 0 mm 2 mps 754 mmHg 46%
    19:00 +31°C° 0 mm 2 mps 755 mmHg 51%
    20:00 +30°C° 0 mm 2 mps 755 mmHg 56%
    21:00 +28°C° 0 mm 1 mps 755 mmHg 61%
    22:00 +27°C° 0 mm 2 mps 755 mmHg 66%
    23:00 +26°C° 0 mm 2 mps 755 mmHg 71%

    30 June, Sunday

    Time Temperature Precipitation Wind Pressure Humidity
    00:00 +25°C° 0 mm 3 mps 755 mmHg 76%
    01:00 +24°C° 0 mm 3 mps 756 mmHg 75%
    02:00 +22°C° 0 mm 3 mps 756 mmHg 74%
    03:00 +21°C° 0 mm 3 mps 756 mmHg 73%
    04:00 +21°C° 0 mm 3 mps 756 mmHg 72%
    05:00 +21°C° 0 mm 3 mps 757 mmHg 72%
    06:00 +21°C° 0 mm 3 mps 757 mmHg 71%
    07:00 +22°C° 0 mm 3 mps 758 mmHg 66%
    08:00 +24°C° 0 mm 2 mps 758 mmHg 62%
    09:00 +26°C° 0 mm 2 mps 758 mmHg 57%
    10:00 +27°C° 0 mm 2 mps 758 mmHg 51%
    11:00 +28°C° 0 mm 3 mps 758 mmHg 45%
    12:00 +29°C° 0 mm 3 mps 758 mmHg 39%
    13:00 +29°C° 0 mm 3 mps 758 mmHg 39%
    14:00 +30°C° 0 mm 3 mps 758 mmHg 38%
    15:00 +30°C° 0 mm 4 mps 758 mmHg 37%
    16:00 +29°C° 0 mm 3 mps 758 mmHg 41%
    17:00 +28°C° 0 mm 3 mps 758 mmHg 46%
    18:00 +27°C° 0 mm 3 mps 758 mmHg 50%
    19:00 +26°C° 0 mm 3 mps 758 mmHg 55%
    20:00 +24°C° 0 mm 3 mps 758 mmHg 60%
    21:00 +22°C° 0 mm 3 mps 759 mmHg 65%
    22:00 +21°C° 0.1 mm 2 mps 759 mmHg 69%
    23:00 +20°C° 0.1 mm 2 mps 759 mmHg 74%

    1 July, Monday

    Time Temperature Precipitation Wind Pressure Humidity
    00:00 +19°C° 0.1 mm 2 mps 759 mmHg 79%
    01:00 +19°C° 0.3 mm 2 mps 759 mmHg 79%
    02:00 +18°C° 0.3 mm 2 mps 759 mmHg 78%
    03:00 +18°C° 0.3 mm 2 mps 759 mmHg 78%
    04:00 +19°C° 0 mm 1 mps 759 mmHg 75%
    05:00 +19°C° 0 mm 1 mps 758 mmHg 73%
    06:00 +19°C° 0 mm 1 mps 758 mmHg 70%
    07:00 +21°C° 0 mm 1 mps 759 mmHg 65%
    08:00 +21°C° 0 mm 2 mps 759 mmHg 61%
    09:00 +24°C° 0 mm 2 mps 759 mmHg 56%
    10:00 +24°C° 0 mm 3 mps 759 mmHg 53%
    11:00 +25°C° 0 mm 3 mps 759 mmHg 50%
    12:00 +26°C° 0 mm 4 mps 759 mmHg 47%
    13:00 +26°C° 0 mm 4 mps 759 mmHg 47%
    14:00 +26°C° 0 mm 4 mps 759 mmHg 47%
    15:00 +27°C° 0 mm 4 mps 759 mmHg 46%
    16:00 +26°C° 0 mm 4 mps 759 mmHg 50%
    17:00 +25°C° 0 mm 5 mps 759 mmHg 54%
    18:00 +23°C° 0 mm 5 mps 759 mmHg 58%
    19:00 +21°C° 0 mm 4 mps 759 mmHg 61%
    20:00 +19°C° 0 mm 4 mps 760 mmHg 65%
    21:00 +17°C° 0 mm 3 mps 761 mmHg 69%
    22:00 +17°C° 0 mm 3 mps 761 mmHg 72%
    23:00 +16°C° 0 mm 3 mps 761 mmHg 75%
    Show more